YZ-1S R/B

基本信息
目录编号:
60326
目录名称:
YZ-1S R/B
国际标识:
2024-048E
轨道中心:
EARTH
物体状态:
在轨
发射日期:
2024-03-13 UTC
国别:
中国 (CN)
轨道信息
数据来源: 国际轨道数据
星历时间: 2026-07-16T08:52:51+0800
半长轴: 69527.714km
偏心率: 0.8929421
轨道倾角: 15.774°
近地点辐角: 250.393°
升交点赤经: 299.707°
平近点角: 359.712°
近地点: 1065.354km
远地点: 125233.8km
周期: 3040.862分钟
每日圈数: 0.47355
详细信息
发射场:
XSC
轨道高度:
LEO
数据来源:
AOE Integration Group
参考系:
TEME
时间系统:
UTC
历元类型:
SGP4
2D轨道图
3D轨道图
轨道高度分析图
轨道倾角分析图
轨道综合分析图
查看轨道综合分析图